Notices

What's New in latest Release from April 7th, 2021:

- Updated Glossary, including Speed of Maximum Gust, and Total Hourly Precipitation

- Updated national and regional climate services offices contacts and prices information

- Addition of station inventory lists for 1981-2010, 1971-2000, and 1961-1990 Normals.

If you haven't already, please take our survey and provide feedback about our website: https://eccc.sondage-survey.ca/f/LanguageSelection.aspx?s=442ca660-fcf1-47c0-95a9-59707d6fd709

Hourly Data Report for April 06, 2017

KUGAARUK CLIMATE
NUNAVUT

68°32'15.060" N
89°47'47.020" W
15.80 m
2303094
71407
NBB

Download Data

Hourly Data (April 2017)
Hourly Data Report for April 6, 2017
TIME
LST
Temp Definition
°C
Dew Point Definition
°C
Rel Hum Definition
%
Precip. Amount Definition
mm

Wind Dir Definition
10's deg

Wind Spd Definition
km/h
Visibility Definition
km
Stn Press Definition
kPa
Hmdx Definition


Wind Chill Definition


Weather Definition


00:00 -21.2 -24.3 76 0.0 23 23   101.76   -33 LegendNANA
01:00 -21.1 -24.2 76 0.0 23 26   101.78   -33 LegendNANA
02:00 -21.1 -24.3 76 0.0 24 27   101.79   -33 LegendNANA
03:00 -21.3 -24.5 75 0.0 23 26   101.81   -33 LegendNANA
04:00 -21.8 -24.8 76 0.0 24 37   101.77   -36 LegendNANA
05:00 -21.9 -25.1 75 0.0 24 40   101.76   -37 LegendNANA
06:00 -21.7 -25.0 75 0.0 24 40   101.73   -36 LegendNANA
07:00 -21.5 -25.1 73 0.0 24 30   101.77   -35 LegendNANA
08:00 -21.3 -25.2 71 0.0 23 17   101.78   -31 LegendNANA
09:00 -20.6 -24.6 70 0.0 23 19   101.78   -31 LegendNANA
10:00 -20.0 -24.7 66 0.0 23 20   101.77   -30 LegendNANA
11:00 -19.3 -24.1 66 0.0 24 17   101.77   -29 LegendNANA
12:00 -19.1 -24.2 64 0.0 25 14   101.76   -28 LegendNANA
13:00 -18.9 -23.6 66 0.0 25 14   101.75   -27 LegendNANA
14:00 -18.8 -24.1 63 0.0 24 7   101.72   -24 LegendNANA
15:00 -19.0 -24.0 64 0.0 25 6   101.70   -24 LegendNANA
16:00 -19.5 -24.1 67 0.0 18 7   101.66   -25 LegendNANA
17:00 -20.7 -24.6 71 0.0 15 8   101.61   -27 LegendNANA
18:00 -22.3 -26.1 71 0.0 12 7   101.58   -28 LegendNANA
19:00 -21.4 -24.7 74 0.0 8 7   101.56   -27 LegendNANA
20:00 -22.6 -25.7 76 0.0 6 10   101.52   -30 LegendNANA
21:00 -23.4 -26.3 77 0.0 6 18   101.49   -34 LegendNANA
22:00 -22.3 -25.3 77 0.0 7 19   101.43   -33 LegendNANA
23:00 -21.8 -24.6 78 0.0 8 20   101.35   -33 LegendNANA

Notes on Data Quality.

Legend

  • E = Estimated
  • M = Missing
  • NA = Not Available*
  • [empty] = Indicates an unobserved value
Date modified: